Starlink 32647

operational
NORAD ID: 62200 Int'l Des: 2024-229 Owner: SPXS Country: US Constellation: starlink
LEOCIRCULAR

Starlink 32647について

説明を読み込み中...

リアルタイム位置

3D地球を読み込み中...

次回通過

高度履歴

Altitude vs Time

uPlot chart will show altitude changes over time

軌道要素

1 62200U 24229J 25350.14790045 .00028317 00000-0 10336-2 0 9990
2 62200 43.0018 22.6065 0001515 233.2935 126.7778 15.27613265 57781
Epoch: Dec 16, 2025 • Age: 22 hours

現在のステータス

高度 494.5 km
速度 7.62 km/s
衛星直下点 -41.65°S, 167.18°E
打ち上げ日 Dec 4, 2024
運用期間 1 years
タイプ internet

技術仕様

分類 Payload
質量 730.00 kg
乾燥質量 700.00 kg
総質量 730.00 kg
長さ 0.30 m
直径 4.10 m
スパン 29.00 m
形状 Box + pan
製造者 SPXS
バスタイプ Starlink V2M
フェーズステータス In Orbit
所有者/国 SPXS/US

大規模コンステレーション

Loading constellations...